Weather in Sursko-Mykhailivka

Ukraine / Dnipropetrovsk Region     48°16′47″N   34°43′39″E
temp.,
°C
wind,
m/s
gust,
m/s
humid.,
%
clouds,
%
prec.,
mm/h
press.,
hPa
HPBL,
m
12 april, mon
mon1200:00+11ne5956100 0.0 1023475
03:00+9nne5960100 0.0 1022460
06:00+9ne4867100 0.0 1020487
09:00+9ene4679100 0.0 1020360
12:00+14se4567100 0.0 10201106
15:00+15se2361100 0.1 10201245
18:00+14sse2363100 0.1 1020869
21:00+11s3585100 0.4 1021180
13 april, tue
tue1300:00+11s3586100 0.1 1021271
03:00+10s2489100 0.1 1021241
06:00+9sse249187 0.0 1021200
09:00+11sse347637 0.0 1022544
12:00+14sse4461100 0.1 10211300
15:00+14ssw3458100 0.1 10201150
18:00+14se1265100 0.0 102033
21:00+12sse3675100 0.1 1020176
14 april, wed
wed1400:00+11sse4781100 0.0 1019258
03:00+10s248772 0.0 1019162
06:00+8sse349482 0.0 101979
09:00+11sse337653 0.0 1018551
12:00+14s3459100 0.3 10171354
15:00+16sse454997 0.3 10161839
18:00+15se4649100 0.0 1015287
21:00+12s485975 0.0 1016328
15 april, thu
thu1500:00+8sse367951 0.0 1015115
03:00+7se368590 0.0 1015117
06:00+8se3784100 0.1 1014264
09:00+11se576888 0.1 1014594
12:00+12sse576592 0.0 10131070
15:00+10sse4888100 2.2 1013636
18:00+10s4888100 0.5 1013562
21:00+9s4790100 1.2 1013396
16 april, fri
fri1600:00+8ssw5888100 0.0 1013389
03:00+5s5109561 0.0 1013319
06:00+6s5987100 0.0 1013503
09:00+7s6987100 0.0 1014611
12:00+8ssw5785100 0.1 1015703
15:00+11sw6761100 0.6 10151205
18:00+11ssw565880 0.4 1016973
21:00+7wsw237662 0.4 101731